Tracking 18840 objects as of 18-November-2017
HD Live streaming from Space Station
objects crossing your sky now

CZ-2C DEB

Track CZ-2C DEB now!
10-day predictions


NORAD ID: 40265
Int'l Code: 2014-059E
Perigee: 691.7 km
Apogee: 975.7 km
Inclination: 97.9 °
Period: 101.4 minutes
Semi major axis: 7204 km
RCS: Unknown
Launch date: September 28, 2014
Source: People's Republic of China (PRC)
Launch site: Jiuquan Satellite Launch Center, China (JSC)

Note: This is SATELLITE DEBRIS
aabbcc
Your satellite tracking list
Your tracking list is empty




NASA's NSSDC Master Catalog

Two Line Element Set (TLE):
1 40265U 14059E   17321.53435418 +.00000443 +00000-0 +18752-3 0  9990
2 40265 097.8821 302.1474 0197082 035.6237 325.7913 14.19636823162516
Source of the keplerian elements: AFSPC